Dewpoint
43 41 41 41 41 41 41 41 42 41 39 39 39 38 37 36 35 35 34 33 32 32
44 42 41 41 41 41 42 42 41 40 38 37 37 37 36 35 34 34 33 31 31 31
45 43 41 41 41 41 42 41 40 38 37 35 35 35 34 34 33 31 31 31 31 30
45 44 41 41 41 41 41 40 38 37 36 33 32 32 31 31 30 29 29 29 29 29
43 42 40 40 40 41 40 38 37 35 34 32 31 30 30 28 29 29 28 27 27 27
41 39 39 38 39 40 38 37 35 33 31 30 30 30 30 31 29 29 28 27 25 25
40 38 37 37 38 37 35 33 32 31 31 30 29 29 29 28 27 27 27 26 25 23
39 37 36 36 36 33 31 30 30 31 31 30 29 29 29 27 27 26 25 24 24 23
38 35 34 34 31 30 31 31 31 31 30 29 30 31 31 28 27 26 22 22 22 23
34 33 33 33 32 31 32 32 31 30 30 30 31 32 32 30 27 24 22 21 18 16
33 33 34 34 32 31 31 31 29 28 28 29 30 31 32 29 26 24 23 21 19 18
33 32 31 31 30 31 31 28 27 27 28 28 30 30 29 26 23 22 21 19 19 20
32 31 31 31 31 30 28 26 27 26 27 29 28 28 26 24 22 19 19 19 19 19
32 32 31 30 30 28 26 26 25 25 25 26 28 28 27 23 20 19 18 17 18 19
Wind_Speed
16 17 16 18 17 16 16 13 11 10 10 9 8 7 8 9 10 12 13 14 11 11
15 15 18 17 15 13 12 14 14 13 11 10 9 10 9 8 9 10 11 11 11 10
15 13 16 15 18 17 16 15 16 16 14 11 9 6 9 11 10 12 10 10 11 10
13 11 14 16 16 18 19 20 20 18 16 14 13 11 11 11 12 13 11 9 10 10
12 11 11 11 12 16 20 18 19 18 17 16 14 13 14 12 11 12 11 9 9 8
14 14 16 19 17 16 16 17 17 18 18 17 15 13 9 11 12 16 12 9 10 9
19 19 17 14 18 19 18 18 15 14 14 16 15 12 14 12 13 15 14 10 7 5
10 10 14 16 13 13 15 14 14 16 15 15 13 12 16 14 12 14 13 10 7 10
12 13 15 15 17 18 18 19 19 16 16 16 13 23 19 16 11 10 12 12 12 12
13 14 14 15 16 18 19 18 17 16 14 13 11 13 17 18 11 11 10 12 12 12
13 14 13 13 12 11 15 16 16 14 13 11 5 9 15 18 14 12 9 9 8 12
12 13 14 15 14 14 14 13 14 15 15 13 12 20 23 19 15 13 10 8 7 11
13 16 16 17 16 11 15 15 15 14 13 13 16 21 21 20 14 14 11 8 8 14
12 13 14 14 15 16 17 16 15 16 12 10 12 18 20 20 14 13 11 9 8 8
Wind_Direction
185 183 191 184 182 185 184 175 161 156 148 146 143 134 123 117 114 120 120 120 113 108
197 192 197 190 179 177 167 167 162 157 152 147 149 146 134 121 109 107 111 109 110 104
212 207 199 181 183 175 167 160 159 157 155 149 145 142 135 127 117 110 115 113 115 110
219 214 197 190 180 175 164 160 161 160 155 153 148 149 141 134 130 120 118 113 114 128
203 189 180 177 165 164 163 162 159 155 152 152 157 152 149 149 133 126 113 106 109 104
199 186 182 174 164 164 159 157 157 156 152 150 145 147 136 123 113 109 102 84 91 103
204 194 184 171 160 158 157 152 154 150 137 131 133 135 116 113 109 104 95 87 83 94
214 180 170 162 153 137 132 122 115 107 106 111 113 116 117 117 115 110 107 107 113 89
186 163 153 142 137 132 129 126 127 132 133 134 129 137 132 125 135 128 128 130 105 96
165 159 153 143 141 145 140 138 142 138 133 131 121 134 141 142 139 130 146 135 136 125
156 152 143 139 142 139 140 138 135 131 117 109 126 151 155 134 124 128 137 145 136 128
150 138 133 130 129 124 127 126 128 125 125 118 124 132 132 120 118 111 115 121 125 144
145 145 141 138 143 138 131 127 124 123 124 127 133 133 130 123 126 126 119 109 105 141
147 143 138 132 132 129 128 127 128 125 111 107 134 140 138 139 134 140 137 142 135 137